Flag for U.S.A. Weather past 2 weeks in Charlotte, North Carolina, U.S.A.

Now
62 °F

Passing clouds.


Feels Like: 62 °F
Forecast: 36 / 64 °F
Wind: 6 mph from East

Location: Charlotte / Douglas International Airport


UV Index: 5 (Moderate)

Visibility: 10 mi


Pressure: 30.43 "Hg

Humidity: 26%

Dew point: 27 °F

Location of CharlotteLocation

Historic Weather in Charlotte

°F

Charlotte temperature yesterday

Maximum temperature yesterday: 57 °F (at 5:52 PM)
Minimum temperature yesterday: 32 °F (at 6:52 AM)
Average temperature yesterday: 45 °F

Past Weeks' High & Low Weather Summary

 TemperatureHumidityPressure
High85 °F (Apr 3, 3:52 PM)100% (Apr 7, 5:59 AM)30.54 "Hg (Apr 7, 5:59 AM)
Low32 °F (Apr 16, 6:52 AM)14% (Apr 2, 6:52 PM)29.59 "Hg (Apr 8, 4:52 AM)
Average61 °F56%30.02 "Hg
* Reported Apr 2 3:52 PM — Apr 17 3:52 PM, Charlotte, Weather by CustomWeather, © 2014

Note: Actual official high and low records may vary slightly from our data, if they occured in-between our weather recording intervals... More about our weather records

Advertising

Historic Weather Conditions — Data for Previous 24 hours

 ConditionsComfort  
Time TempWeatherWind HumidityBarometerVisibility
3:52 PM
Apr 17
62 °FPassing clouds.6 mph26%30.43 "Hg10 mi
2:52 PM61 °FPassing clouds.9 mph27%30.46 "Hg10 mi
1:52 PM58 °FScattered clouds.10 mph31%30.48 "Hg10 mi
12:52 PM55 °FScattered clouds.3 mph37%30.51 "Hg10 mi
11:52 AM54 °FSunny.12 mph38%30.53 "Hg10 mi
10:52 AM50 °FScattered clouds.12 mph43%30.53 "Hg10 mi
9:52 AM47 °FSunny.8 mph46%30.54 "Hg10 mi
8:52 AM44 °FPartly sunny.9 mph55%30.53 "Hg10 mi
7:52 AM39 °FPartly sunny.9 mph67%30.51 "Hg10 mi
6:52 AM38 °FPassing clouds.6 mph70%30.49 "Hg10 mi
5:52 AM38 °FClear.8 mph70%30.47 "Hg10 mi
4:52 AM40 °FClear.7 mph65%30.46 "Hg10 mi
3:52 AM41 °FClear.7 mph62%30.46 "Hg10 mi
2:52 AM42 °FClear.6 mph60%30.45 "Hg10 mi
1:52 AM44 °FClear.7 mph53%30.44 "Hg10 mi
12:52 AM45 °FClear.7 mph51%30.43 "Hg10 mi
11:52 PM
Apr 16
46 °FClear.5 mph50%30.42 "Hg10 mi
10:52 PM49 °FClear.7 mph43%30.41 "Hg10 mi
9:52 PM49 °FClear.5 mph43%30.39 "Hg10 mi
8:52 PM51 °FSunny.5 mph36%30.37 "Hg10 mi
7:52 PM53 °FSunny.8 mph32%30.34 "Hg10 mi
6:52 PM55 °FSunny.12 mph31%30.34 "Hg10 mi
5:52 PM57 °FSunny.8 mph31%30.32 "Hg10 mi
Weather by CustomWeather, © 2014

See weather overview